COSMOS 2534 (758)

Last updated on Mon Jun 22 2026 00:03:26 GMT+0000 (Coordinated Universal Time)

1 44299U 19030A 26172.37658476 .00000074 00000+0 00000+0 0 9994 2 44299 64.3690 192.4752 0013451 275.1251 197.9596 2.13102244 55011
UTC large
Height (km)
Speed (km/s)
/
Latitude / Longitude
Inclination (degrees)
Orbital Period (minutes)
Azimuth
Elevation
Range (km)
Doppler Factor

Next 0 passes for location: London (51.5072 / 0.1276)

No passes found over London.
COSMOS 2534 (758)